Location: Bazinghen
(50.8246°N, 1.6616°E)
Time: 05:30:23
(UTC+00:00)

Spot 4 - Pass Details

Date: 09 April 2020
Orbit: 704 x 723 km, 98.3° (Epoch: 01 June)

Event Time Altitude Azimuth Distance (km) Brightness Sun altitude
Exits shadow 22:53:51 53° 326° (NW) 874 4.5 -29.7°
Drops below altitude 10° 22:57:36 10° 343° (NNW) 2,204 7.3 -29.9°
Sets 22:59:54 0° 345° (NNW) 3,131 8.4 -30.0°
